DateTimeUTC,F1_A11,F1_S11,BsB_S11,BsG_S11,BsR_S11,BbsB_S11,BbsG_S11,BbsR_S11,BaB_A11,BaG_A11,BaR_A11,Tu_S11,T_S11,Uu_S11,U_S11,P_S11,T1_A11
2021-07-24T02:00:00Z,00000200,20000000,,,,,,,0000.56,0000.83,0000.63,18.6,25.4,07.0,04.6,0665.6,31.1
2021-07-24T02:01:00Z,00000200,20000000,,,,,,,0000.02,-000.22,-000.50,18.6,25.4,07.0,04.6,0665.6,31.1
2021-07-24T02:02:00Z,00000200,20000000,,,,,,,-000.02,0000.17,0000.34,18.6,25.4,07.0,04.6,0665.6,31.1
2021-07-24T02:03:00Z,00000200,60000000,,,,,,,0000.09,0000.15,0000.18,18.6,25.5,07.0,04.6,0665.6,31.1
2021-07-24T02:04:00Z,00000200,40000000,0001.73,0000.81,0000.77,0000.31,0000.23,0000.04,0000.39,0000.54,0000.38,18.9,25.3,07.0,04.7,0666.5,31.1
2021-07-24T02:05:00Z,00000200,00000000,0001.62,0000.69,0000.44,0000.24,0000.34,0000.31,0000.29,-000.06,-000.09,18.9,25.3,07.0,04.7,0666.6,31.1
2021-07-24T02:06:00Z,00000200,00000000,0002.28,0001.07,0000.49,0000.85,0000.36,0000.44,0000.35,0000.05,0000.09,18.9,25.3,07.0,04.8,0666.5,31.1
2021-07-24T02:07:00Z,00000200,00000000,0002.04,0000.67,0000.68,0000.26,0000.12,0000.36,0000.12,0000.32,0000.41,18.9,25.3,07.0,04.8,0666.5,31.1
2021-07-24T02:08:00Z,00000200,00000000,0001.81,0000.79,0000.72,0000.41,0000.11,0000.36,0000.23,0000.08,0000.41,18.9,25.2,06.9,04.7,0666.5,31.1
2021-07-24T02:09:00Z,00000200,00000000,0000.80,0000.89,0000.34,0000.26,0000.20,0000.42,0000.50,0000.52,0000.08,18.9,25.2,07.0,04.8,0666.5,31.1
2021-07-24T02:10:00Z,00000200,00000000,0001.44,0000.80,0000.47,0001.02,-000.01,0000.38,0000.08,0000.23,0000.21,18.8,25.2,07.0,04.7,0666.5,31.1
2021-07-24T02:11:00Z,00000200,00000000,0001.44,0000.78,0000.85,0000.68,0000.22,0000.07,0000.37,0000.21,0000.43,18.8,25.2,07.0,04.8,0666.5,31.1
2021-07-24T02:12:00Z,00000200,00000000,0001.78,0001.06,0000.41,0000.41,0000.29,0000.51,0000.54,0000.52,-000.28,18.8,25.2,07.1,04.8,0666.5,31.1
2021-07-24T02:13:00Z,00000200,00000000,0001.37,0000.66,0000.58,0000.72,0000.41,0000.54,0000.01,0000.01,0000.75,18.8,25.2,07.1,04.8,0666.5,31.1
2021-07-24T02:14:00Z,00000200,00000000,0001.35,0000.66,0000.76,0000.78,0000.28,0000.46,0000.43,0000.47,0000.12,18.8,25.2,07.0,04.8,0666.5,31.1
2021-07-24T02:15:00Z,00000200,00000000,0002.19,0001.06,0000.60,0000.94,0000.38,0000.42,0000.51,0000.53,0000.04,18.8,25.2,07.1,04.8,0666.5,31.1
2021-07-24T02:16:00Z,00000200,00000000,0001.48,0000.73,0000.60,0001.06,0000.14,0000.28,0000.43,0000.29,0000.79,18.9,25.2,07.1,04.8,0666.5,31.1
2021-07-24T02:17:00Z,00000200,00000000,0000.96,0001.10,0000.45,0000.66,0000.32,-000.12,0000.54,0000.32,0000.06,18.9,25.2,07.0,04.8,0666.5,31.1
2021-07-24T02:18:00Z,00000200,00000000,0002.19,0000.80,0000.82,0000.18,0000.50,0000.22,0000.06,0000.38,0000.05,18.9,25.2,07.0,04.8,0666.5,31.1
2021-07-24T02:19:00Z,00000200,00000000,0000.98,0000.80,0000.53,0000.42,-000.02,0000.10,0000.03,0000.20,0000.06,19.0,25.3,07.0,04.8,0666.5,31.1
2021-07-24T02:20:00Z,00000200,00000000,0001.48,0001.17,0000.76,0000.47,0000.30,0000.01,0000.49,0000.14,0000.42,19.0,25.3,07.1,04.8,0666.5,31.1
2021-07-24T02:21:00Z,00000200,00000000,0001.26,0001.35,0000.40,0000.46,0000.32,0000.31,0000.31,0000.38,-000.01,19.0,25.2,07.0,04.7,0666.5,31.1
2021-07-24T02:22:00Z,00000200,00000000,0001.54,0000.91,0000.26,0000.70,-000.00,0000.12,0000.18,-000.06,0000.28,18.9,25.2,06.9,04.7,0666.5,31.1
2021-07-24T02:23:00Z,00000200,00000000,0001.84,0000.84,0000.53,0000.81,-000.11,0000.32,0000.57,0000.47,0000.01,18.9,25.2,07.0,04.8,0666.4,31.1
2021-07-24T02:24:00Z,00000200,00000000,0001.28,0000.84,0000.45,0000.58,0000.15,0000.10,-000.07,0000.47,0000.27,18.9,25.2,07.0,04.7,0666.5,31.1
2021-07-24T02:25:00Z,00000200,00000000,0002.07,0001.15,0000.46,0000.46,0000.16,0000.22,0000.45,0000.04,0000.37,18.9,25.2,06.9,04.7,0666.4,31.1
2021-07-24T02:26:00Z,00000200,00000000,0001.72,0000.88,0000.56,0000.62,-000.00,0000.29,0000.44,0000.14,0000.16,18.8,25.2,06.9,04.7,0666.4,31.1
2021-07-24T02:27:00Z,00000200,00000000,0002.03,0000.60,0000.75,0001.00,0000.23,0000.31,-000.23,0000.45,-000.16,18.8,25.2,07.1,04.8,0666.4,31.1
2021-07-24T02:28:00Z,00000200,00000000,0001.02,0000.77,0000.52,0000.54,0000.14,0000.47,0000.33,0000.02,0000.30,18.8,25.2,07.0,04.8,0666.4,31.1
2021-07-24T02:29:00Z,00000200,00000000,0001.42,0000.96,0000.26,0000.73,0000.19,0000.23,0000.63,0000.32,0000.21,18.8,25.2,07.0,04.8,0666.5,31.1
2021-07-24T02:30:00Z,00000200,00000000,0001.60,0000.75,0001.05,0000.68,0000.12,0000.18,0000.46,0000.71,0000.55,18.8,25.1,07.0,04.8,0666.5,31.1
2021-07-24T02:31:00Z,00000200,00000000,0001.64,0000.85,0000.93,0000.79,0000.30,0000.23,0000.81,0000.02,0000.48,18.9,25.2,06.9,04.7,0666.5,31.1
2021-07-24T02:32:00Z,00000200,00000000,0001.74,0000.85,0000.40,0000.35,0000.00,0000.24,-000.26,0000.48,0000.14,18.9,25.2,07.0,04.8,0666.5,31.1
2021-07-24T02:33:00Z,00000200,00000000,0002.07,0000.85,0000.39,0000.68,0000.09,0000.32,0000.42,0000.41,0000.05,18.9,25.2,07.0,04.8,0666.5,31.1
2021-07-24T02:34:00Z,00000200,00000000,0001.64,0000.86,0000.80,0000.41,0000.08,0000.06,0000.26,0000.53,0000.43,19.0,25.2,07.0,04.8,0666.5,31.1
2021-07-24T02:35:00Z,00000200,00000000,0002.01,0000.57,0000.58,0000.84,0000.38,0000.01,0000.50,-000.44,0000.23,18.9,25.2,07.1,04.8,0666.5,31.1
2021-07-24T02:36:00Z,00000200,00000000,0001.82,0001.11,0000.27,0000.56,0000.07,0000.08,0000.45,0000.47,0000.06,19.0,25.2,07.1,04.8,0666.5,31.1
2021-07-24T02:37:00Z,00000200,00000000,0001.34,0001.23,0000.49,0000.24,0000.21,0000.44,-000.05,0000.47,0000.02,18.9,25.2,07.0,04.8,0666.5,31.1
2021-07-24T02:38:00Z,00000200,00000000,0001.64,0001.01,0000.73,0000.35,0000.48,0000.59,0000.19,0000.05,0000.20,18.9,25.2,07.1,04.8,0666.4,31.1
2021-07-24T02:39:00Z,00000200,00000000,0001.40,0001.02,0000.60,0000.38,-000.02,0000.12,0000.54,0000.31,0000.47,18.9,25.2,07.0,04.8,0666.4,31.1
2021-07-24T02:40:00Z,00000200,00000000,0001.75,0001.34,0000.87,0000.71,0000.48,0000.18,0000.37,0000.46,0000.05,18.9,25.2,07.1,04.8,0666.5,31.1
2021-07-24T02:41:00Z,00000200,00000000,0001.68,0000.97,0000.69,0000.74,0000.09,0000.29,0000.41,0000.25,0000.31,18.8,25.2,07.0,04.8,0666.5,31.1
2021-07-24T02:42:00Z,00000200,00000000,0001.20,0000.71,0000.67,0000.01,0000.23,0000.36,0000.53,0000.24,0000.29,18.8,25.1,07.1,04.8,0666.5,31.1
2021-07-24T02:43:00Z,00000200,00000000,0001.98,0000.54,0000.25,-000.01,0000.32,-000.00,-000.09,0000.31,-000.03,18.8,25.2,07.2,04.9,0666.5,31.1
2021-07-24T02:44:00Z,00000200,00000000,0001.94,0001.19,0000.57,0000.45,0000.49,0000.35,0000.72,0000.76,0000.49,18.8,25.1,07.1,04.8,0666.5,31.1
2021-07-24T02:45:00Z,00000200,00000000,0002.06,0001.50,0000.44,0000.59,0000.44,0000.22,0000.94,0000.73,0001.01,18.8,25.1,07.1,04.8,0666.5,31.1
2021-07-24T02:46:00Z,00000200,00000000,0001.32,0001.27,0000.79,0000.41,0000.37,0000.18,0000.44,0000.58,0000.64,18.9,25.2,07.1,04.8,0666.5,31.1
2021-07-24T02:47:00Z,00000200,00000000,0001.74,0000.80,0000.83,-000.01,0000.29,-000.00,0000.46,0000.17,-000.25,19.0,25.2,07.1,04.8,0666.5,31.1
2021-07-24T02:48:00Z,00000200,00000000,0001.68,0000.67,0000.32,0000.07,0000.40,0000.02,0000.47,0000.39,0000.48,19.0,25.2,07.0,04.8,0666.5,31.1
2021-07-24T02:49:00Z,00000200,00000000,0000.96,0001.04,0000.86,0000.24,0000.26,0000.50,-000.07,0000.26,0000.14,19.1,25.3,07.0,04.8,0666.5,31.1
2021-07-24T02:50:00Z,00000200,00000000,0001.80,0000.81,0000.88,0000.62,0000.40,0000.22,0000.69,0000.12,0000.27,19.1,25.3,07.0,04.8,0666.5,31.1
2021-07-24T02:51:00Z,00000200,00000000,0002.11,0001.15,0000.48,0000.71,0000.03,0000.37,0000.12,0000.32,0000.21,19.1,25.3,07.1,04.8,0666.5,31.1
2021-07-24T02:52:00Z,00000200,00000000,0002.21,0000.98,0000.67,0000.32,0000.07,0000.27,-000.01,0000.27,-000.19,19.0,25.3,06.9,04.7,0666.5,31.1
2021-07-24T02:53:00Z,00000200,00000000,0001.15,0001.06,0000.96,-000.09,0000.06,0000.67,0000.58,0000.09,0000.13,19.0,25.3,07.0,04.8,0666.5,31.1
2021-07-24T02:54:00Z,00000200,00000000,0002.18,0001.20,0000.57,0000.30,0000.25,0000.46,0000.15,0000.56,0000.51,19.0,25.2,07.0,04.8,0666.5,31.1
2021-07-24T02:55:00Z,00000200,00000000,0001.70,0001.34,0000.93,0000.54,0000.38,0000.50,0011.99,0010.96,0008.44,18.9,25.2,07.0,04.8,0666.6,31.1
2021-07-24T02:56:00Z,00000200,00000000,0002.68,0001.40,0001.25,0000.90,0000.27,0000.16,0016.16,0014.68,0011.22,18.9,25.2,07.1,04.9,0666.6,31.1
2021-07-24T02:57:00Z,00000200,40000000,,,,,,,0003.26,0002.81,0002.27,19.0,25.3,06.5,04.4,0666.5,31.1
2021-07-24T02:58:00Z,00000200,60000000,,,,,,,0000.57,-000.23,0000.27,18.6,25.4,07.0,04.6,0665.5,31.1
2021-07-24T02:59:00Z,00000200,20000000,,,,,,,-000.25,0000.30,-000.12,18.6,25.5,07.0,04.6,0665.5,31.1
